UAE1AK OMDB-LLBG

Flight info

Callsign UAE1AK
Flight time N/A
Altitude 39000
Route SENPA N571 ALPOB L768 AAR V45 TRF R652 OBROD Q163 GENEX DCT QAA01 DCT OSAMA DCT RALNA N134 SALAM
Aircraft A359/H-SDE2E3GHIJ3J4J5LM1ORWXY/LB1D1

Departure

Time 2026-04-23 13:22
Airport Dubai International Airport (OMDB)

Arrival

Time N/A
Airport Ben Gurion International Airport (LLBG)
Time Latitude Longitude Altitude Speed Heading
2026-04-23 12:49 25.25967 55.36675 28 ft 0 kts 31°
2026-04-23 13:09 25.25954 55.36667 28 ft 2 kts 28°
2026-04-23 13:10 25.25939 55.36659 28 ft 2 kts 24°
2026-04-23 13:10 25.25924 55.36652 25 ft 2 kts 17°
2026-04-23 13:10 25.25908 55.36649 26 ft 2 kts
2026-04-23 13:10 25.25891 55.36650 36 ft 2 kts 340°
2026-04-23 13:11 25.25877 55.36659 24 ft 2 kts 312°
2026-04-23 13:11 25.25870 55.36669 28 ft 1 kts 302°
2026-04-23 13:11 25.25869 55.36671 27 ft 0 kts 301°
2026-04-23 13:17 25.25875 55.36644 24 ft 5 kts 277°
2026-04-23 13:17 25.25867 55.36611 27 ft 4 kts 239°
2026-04-23 13:17 25.25854 55.36601 29 ft 1 kts 206°
2026-04-23 13:18 25.25843 55.36599 29 ft 6 kts 189°
2026-04-23 13:18 25.25799 55.36628 29 ft 11 kts 127°
2026-04-23 13:18 25.25730 55.36742 29 ft 24 kts 123°
2026-04-23 13:18 25.25628 55.36918 29 ft 29 kts 122°
2026-04-23 13:19 25.25509 55.37128 29 ft 37 kts 122°
2026-04-23 13:19 25.25410 55.37310 30 ft 26 kts 121°
2026-04-23 13:19 25.25293 55.37516 30 ft 37 kts 122°
2026-04-23 13:19 25.25157 55.37758 30 ft 31 kts 122°
2026-04-23 13:20 25.25036 55.37973 29 ft 18 kts 122°
2026-04-23 13:20 25.25019 55.38004 29 ft 3 kts 121°
2026-04-23 13:20 25.24995 55.38048 29 ft 20 kts 121°
2026-04-23 13:20 25.24874 55.38080 33 ft 10 kts 211°
2026-04-23 13:21 25.24837 55.38024 36 ft 10 kts 258°
2026-04-23 13:21 25.24850 55.37953 36 ft 11 kts 295°
2026-04-23 13:21 25.24984 55.37708 36 ft 74 kts 303°
2026-04-23 13:21 25.25385 55.36988 36 ft 144 kts 301°
2026-04-23 13:22 25.25973 55.35886 377 ft 171 kts 304°
2026-04-23 13:22 25.26591 55.34767 1228 ft 170 kts 307°
2026-04-23 13:22 25.27257 55.33599 1606 ft 189 kts 305°
2026-04-23 13:22 25.27977 55.32323 1774 ft 206 kts 305°
2026-04-23 13:23 25.28770 55.30905 2047 ft 221 kts 304°
2026-04-23 13:23 25.29471 55.29363 2339 ft 237 kts 290°
2026-04-23 13:23 25.29791 55.27502 2569 ft 255 kts 278°
2026-04-23 13:23 25.29932 55.25511 2985 ft 262 kts 275°
2026-04-23 13:24 25.30040 55.23502 3554 ft 261 kts 273°
2026-04-23 13:24 25.30142 55.21495 4083 ft 263 kts 272°
2026-04-23 13:24 25.30242 55.19472 4594 ft 264 kts 272°
2026-04-23 13:24 25.30342 55.17446 5088 ft 265 kts 271°
2026-04-23 13:25 25.30442 55.15399 5579 ft 267 kts 271°
2026-04-23 13:25 25.30542 55.13333 6060 ft 269 kts 271°
2026-04-23 13:25 25.30641 55.11282 6509 ft 272 kts 271°
2026-04-23 13:25 25.30742 55.09186 6991 ft 273 kts 271°
2026-04-23 13:26 25.30843 55.07087 7482 ft 274 kts 271°
2026-04-23 13:26 25.30945 55.04966 7984 ft 275 kts 271°
2026-04-23 13:26 25.31046 55.02864 8482 ft 277 kts 270°
2026-04-23 13:26 25.31148 55.00734 9011 ft 278 kts 270°
2026-04-23 13:27 25.31250 54.98590 9512 ft 280 kts 270°
2026-04-23 13:27 25.31352 54.96430 9971 ft 284 kts 270°
2026-04-23 13:27 25.31457 54.94201 10190 ft 295 kts 270°
2026-04-23 13:27 25.31563 54.91907 10373 ft 308 kts 270°
2026-04-23 13:28 25.31676 54.89496 10562 ft 320 kts 270°
2026-04-23 13:28 25.31793 54.86995 10754 ft 331 kts 270°
2026-04-23 13:28 25.31913 54.84422 10941 ft 341 kts 270°
2026-04-23 13:28 25.32038 54.81743 11111 ft 351 kts 270°
2026-04-23 13:29 25.32163 54.79053 11285 ft 360 kts 270°
2026-04-23 13:29 25.32294 54.76216 11497 ft 367 kts 270°
2026-04-23 13:29 25.32425 54.73415 11807 ft 370 kts 270°
2026-04-23 13:29 25.32557 54.70560 12167 ft 372 kts 270°
2026-04-23 13:30 25.32689 54.67687 12542 ft 374 kts 270°
2026-04-23 13:30 25.32820 54.64801 12894 ft 376 kts 270°
2026-04-23 13:30 25.32950 54.61931 13263 ft 378 kts 270°
2026-04-23 13:30 25.33082 54.59013 13639 ft 379 kts 270°
2026-04-23 13:31 25.33213 54.56085 13972 ft 381 kts 270°
2026-04-23 13:31 25.33488 54.53165 14294 ft 385 kts 277°
2026-04-23 13:31 25.34064 54.50306 14654 ft 387 kts 282°
2026-04-23 13:31 25.34803 54.47442 15015 ft 389 kts 284°
2026-04-23 13:32 25.35618 54.44574 15363 ft 390 kts 285°
2026-04-23 13:32 25.36451 54.41708 15722 ft 391 kts 285°
2026-04-23 13:32 25.37279 54.38826 16085 ft 392 kts 285°
2026-04-23 13:32 25.38089 54.35943 16441 ft 393 kts 284°
2026-04-23 13:33 25.38889 54.33038 16802 ft 394 kts 284°
2026-04-23 13:33 25.39668 54.30166 17140 ft 395 kts 284°
2026-04-23 13:33 25.40453 54.27249 17497 ft 396 kts 284°
2026-04-23 13:33 25.41218 54.24319 17825 ft 397 kts 283°
2026-04-23 13:34 25.41951 54.21367 18152 ft 399 kts 283°
2026-04-23 13:34 25.42675 54.18392 18429 ft 400 kts 283°
2026-04-23 13:34 25.43398 54.15416 18701 ft 401 kts 283°
2026-04-23 13:34 25.44788 54.09734 19216 ft 404 kts 283°
2026-04-23 13:35 25.45527 54.06725 19505 ft 405 kts 283°
2026-04-23 13:35 25.46255 54.03703 19778 ft 406 kts 283°
2026-04-23 13:35 25.46979 54.00677 20053 ft 407 kts 283°
2026-04-23 13:35 25.47694 53.97680 20296 ft 408 kts 283°
2026-04-23 13:36 25.48421 53.94638 20563 ft 409 kts 283°
2026-04-23 13:36 25.49152 53.91580 20836 ft 411 kts 283°
2026-04-23 13:36 25.49885 53.88519 21092 ft 412 kts 283°
2026-04-23 13:36 25.50614 53.85476 21346 ft 413 kts 283°
2026-04-23 13:37 25.51352 53.82396 21596 ft 414 kts 283°
2026-04-23 13:37 25.52091 53.79306 21850 ft 415 kts 283°
2026-04-23 13:37 25.52834 53.76200 22108 ft 417 kts 283°
2026-04-23 13:37 25.53579 53.73095 22367 ft 418 kts 283°
2026-04-23 13:38 25.54325 53.69984 22619 ft 419 kts 283°
2026-04-23 13:38 25.55073 53.66858 22864 ft 420 kts 283°
2026-04-23 13:38 25.55811 53.63769 23111 ft 420 kts 283°
2026-04-23 13:38 25.56560 53.60628 23361 ft 421 kts 283°
2026-04-23 13:39 25.57311 53.57476 23567 ft 422 kts 283°
2026-04-23 13:39 25.58061 53.54329 23781 ft 423 kts 283°
2026-04-23 13:39 25.58810 53.51178 23982 ft 424 kts 283°
2026-04-23 13:39 25.59565 53.48005 24200 ft 424 kts 283°
2026-04-23 13:40 25.60308 53.44877 24399 ft 425 kts 283°
2026-04-23 13:40 25.61062 53.41700 24605 ft 426 kts 283°
2026-04-23 13:40 25.61818 53.38522 24793 ft 427 kts 283°
2026-04-23 13:40 25.62574 53.35336 24981 ft 427 kts 283°
2026-04-23 13:41 25.63324 53.32152 25169 ft 428 kts 283°
2026-04-23 13:41 25.64077 53.28952 25362 ft 429 kts 283°
2026-04-23 13:41 25.64831 53.25743 25554 ft 430 kts 283°
2026-04-23 13:41 25.65585 53.22532 25735 ft 431 kts 283°
2026-04-23 13:42 25.66340 53.19314 25934 ft 431 kts 283°
2026-04-23 13:42 25.67088 53.16129 26121 ft 432 kts 283°
2026-04-23 13:42 25.67847 53.12891 26296 ft 433 kts 283°
2026-04-23 13:42 25.68607 53.09647 26480 ft 434 kts 283°
2026-04-23 13:43 25.69366 53.06405 26664 ft 435 kts 283°
2026-04-23 13:43 25.70187 53.03154 26837 ft 437 kts 287°
2026-04-23 13:43 25.71299 53.00057 27015 ft 439 kts 293°
2026-04-23 13:43 25.72634 52.96997 27198 ft 440 kts 294°
2026-04-23 13:44 25.74032 52.93960 27374 ft 442 kts 295°
2026-04-23 13:44 25.75463 52.90935 27570 ft 443 kts 295°
2026-04-23 13:44 25.76904 52.87919 27746 ft 443 kts 295°
2026-04-23 13:44 25.78360 52.84873 27930 ft 445 kts 295°
2026-04-23 13:45 25.79315 52.82868 28049 ft 445 kts 295°
2026-04-23 13:45 25.81232 52.78825 28280 ft 446 kts 295°
2026-04-23 13:45 25.82677 52.75766 28452 ft 447 kts 295°
2026-04-23 13:45 25.84120 52.72704 28623 ft 448 kts 295°
2026-04-23 13:46 25.85567 52.69627 28791 ft 449 kts 295°
2026-04-23 13:46 25.87014 52.66548 28950 ft 450 kts 295°
2026-04-23 13:46 25.88447 52.63496 29118 ft 451 kts 295°
2026-04-23 13:46 25.89900 52.60402 29280 ft 452 kts 295°
2026-04-23 13:47 25.91342 52.57286 29432 ft 453 kts 294°
2026-04-23 13:47 25.92286 52.55169 29541 ft 453 kts 294°
2026-04-23 13:47 25.93651 52.52049 29694 ft 454 kts 294°
2026-04-23 13:47 25.95027 52.48877 29856 ft 455 kts 294°
2026-04-23 13:48 25.96855 52.44669 30034 ft 457 kts 294°
2026-04-23 13:48 25.98241 52.41494 30189 ft 457 kts 294°
2026-04-23 13:48 25.99183 52.39344 30336 ft 456 kts 294°
2026-04-23 13:48 26.00588 52.36176 30548 ft 456 kts 294°
2026-04-23 13:49 26.01985 52.33051 30750 ft 456 kts 294°
2026-04-23 13:49 26.03397 52.29896 30962 ft 455 kts 294°
2026-04-23 13:49 26.04807 52.26747 31189 ft 455 kts 294°
2026-04-23 13:49 26.06216 52.23593 31409 ft 454 kts 294°
2026-04-23 13:50 26.07618 52.20450 31629 ft 454 kts 294°
2026-04-23 13:50 26.09021 52.17300 31848 ft 453 kts 294°
2026-04-23 13:50 26.10417 52.14160 32052 ft 453 kts 294°
2026-04-23 13:50 26.11818 52.11009 32288 ft 453 kts 294°
2026-04-23 13:51 26.13193 52.07912 32505 ft 452 kts 294°
2026-04-23 13:51 26.14587 52.04771 32752 ft 451 kts 294°
2026-04-23 13:51 26.15975 52.01641 33001 ft 450 kts 294°
2026-04-23 13:51 26.17364 51.98506 33251 ft 450 kts 294°
2026-04-23 13:52 26.18759 51.95393 33481 ft 449 kts 294°
2026-04-23 13:52 26.20167 51.92282 33742 ft 449 kts 294°
2026-04-23 13:52 26.21544 51.89209 33959 ft 448 kts 294°
2026-04-23 13:52 26.22917 51.86100 34181 ft 447 kts 294°
2026-04-23 13:53 26.24280 51.82996 34462 ft 444 kts 294°
2026-04-23 13:53 26.25634 51.79907 34754 ft 442 kts 294°
2026-04-23 13:53 26.26989 51.76845 35048 ft 439 kts 294°
2026-04-23 13:53 26.28341 51.73807 35328 ft 437 kts 294°
2026-04-23 13:54 26.29689 51.70784 35601 ft 435 kts 294°
2026-04-23 13:54 26.31033 51.67770 35867 ft 432 kts 294°
2026-04-23 13:54 26.32366 51.64781 36145 ft 430 kts 294°
2026-04-23 13:54 26.33682 51.61834 36432 ft 428 kts 293°
2026-04-23 13:55 26.35004 51.58871 36701 ft 426 kts 293°
2026-04-23 13:55 26.36314 51.55930 36967 ft 423 kts 293°
2026-04-23 13:55 26.37578 51.52967 37231 ft 420 kts 290°
2026-04-23 13:55 26.38632 51.49949 37497 ft 416 kts 288°
2026-04-23 13:56 26.39633 51.46919 37749 ft 414 kts 287°
2026-04-23 13:56 26.40607 51.43898 37996 ft 412 kts 287°
2026-04-23 13:56 26.41566 51.40886 38231 ft 410 kts 287°
2026-04-23 13:56 26.42515 51.37893 38446 ft 408 kts 287°
2026-04-23 13:57 26.43455 51.34934 38622 ft 407 kts 287°
2026-04-23 13:57 26.44407 51.31951 38745 ft 407 kts 287°
2026-04-23 13:57 26.45355 51.28973 38835 ft 407 kts 287°
2026-04-23 13:58 26.47257 51.23012 39035 ft 407 kts 287°
2026-04-23 13:58 26.49139 51.17106 39234 ft 406 kts 287°
2026-04-23 13:59 26.51032 51.11155 39421 ft 406 kts 287°
2026-04-23 13:59 26.51975 51.08187 39523 ft 405 kts 287°
2026-04-23 13:59 26.52922 51.05207 39613 ft 405 kts 287°
2026-04-23 14:00 26.54479 51.00299 39735 ft 405 kts 287°
2026-04-23 14:00 26.55736 50.96333 39870 ft 404 kts 287°
2026-04-23 14:00 26.56677 50.93362 39892 ft 406 kts 287°
2026-04-23 14:01 26.58563 50.87381 39897 ft 409 kts 286°
2026-04-23 14:01 26.60413 50.81398 39895 ft 409 kts 286°
2026-04-23 14:02 26.62269 50.75376 39894 ft 409 kts 286°
2026-04-23 14:02 26.64125 50.69364 39895 ft 408 kts 286°
2026-04-23 14:03 26.65944 50.63384 39885 ft 408 kts 285°
2026-04-23 14:03 26.67713 50.57355 39888 ft 408 kts 285°
2026-04-23 14:04 26.69482 50.51320 39895 ft 407 kts 285°
2026-04-23 14:04 26.71222 50.45321 39893 ft 407 kts 284°
2026-04-23 14:05 26.72773 50.39243 39903 ft 406 kts 283°
2026-04-23 14:05 26.74289 50.33131 39892 ft 406 kts 283°
2026-04-23 14:06 26.75829 50.27040 39899 ft 406 kts 283°
2026-04-23 14:06 26.77528 50.21040 39897 ft 407 kts 285°
2026-04-23 14:07 26.79381 50.15031 39910 ft 408 kts 285°
2026-04-23 14:07 26.82120 50.06001 39902 ft 408 kts 285°
2026-04-23 14:08 26.83913 49.99970 39911 ft 408 kts 285°
2026-04-23 14:08 26.85693 49.93979 39914 ft 408 kts 285°
2026-04-23 14:09 26.87479 49.87932 39922 ft 408 kts 285°
2026-04-23 14:09 26.89250 49.81932 39922 ft 407 kts 284°
2026-04-23 14:10 26.91030 49.75895 39928 ft 407 kts 284°
2026-04-23 14:10 26.92810 49.69852 39932 ft 407 kts 284°
2026-04-23 14:11 26.94577 49.63845 39942 ft 408 kts 284°
2026-04-23 14:11 26.96348 49.57809 39939 ft 407 kts 284°
2026-04-23 14:12 26.98119 49.51767 39946 ft 407 kts 284°
2026-04-23 14:12 26.99888 49.45719 39947 ft 407 kts 284°
2026-04-23 14:13 27.01969 49.39827 39951 ft 412 kts 292°
2026-04-23 14:13 27.04709 49.34168 39952 ft 413 kts 294°
2026-04-23 14:14 27.07531 49.28590 39950 ft 413 kts 294°
2026-04-23 14:14 27.10374 49.22984 39950 ft 413 kts 294°
2026-04-23 14:15 27.13203 49.17367 39949 ft 413 kts 293°
2026-04-23 14:15 27.16022 49.11747 39952 ft 413 kts 293°
2026-04-23 14:16 27.18828 49.06141 39955 ft 412 kts 293°
2026-04-23 14:16 27.21640 49.00518 39954 ft 412 kts 293°
2026-04-23 14:17 27.24443 48.94915 39952 ft 412 kts 293°
2026-04-23 14:17 27.27248 48.89280 39954 ft 412 kts 293°
2026-04-23 14:18 27.30033 48.83679 39952 ft 412 kts 292°
2026-04-23 14:18 27.32837 48.78037 39950 ft 412 kts 292°
2026-04-23 14:19 27.35623 48.72425 39954 ft 412 kts 292°
2026-04-23 14:19 27.38422 48.66780 39949 ft 412 kts 292°
2026-04-23 14:20 27.41224 48.61121 39952 ft 413 kts 292°
2026-04-23 14:20 27.44023 48.55460 39951 ft 413 kts 292°
2026-04-23 14:21 27.46806 48.49825 39949 ft 414 kts 292°
2026-04-23 14:21 27.49606 48.44148 39953 ft 414 kts 292°
2026-04-23 14:22 27.52387 48.38501 39953 ft 414 kts 292°
2026-04-23 14:22 27.55186 48.32810 39958 ft 415 kts 292°
2026-04-23 14:23 27.57985 48.27115 39957 ft 415 kts 292°
2026-04-23 14:23 27.60794 48.21411 39957 ft 416 kts 292°
2026-04-23 14:24 27.63580 48.15733 39962 ft 416 kts 292°
2026-04-23 14:24 27.66387 48.10009 39965 ft 416 kts 292°
2026-04-23 14:25 27.69190 48.04285 39965 ft 417 kts 292°
2026-04-23 14:25 27.72000 47.98556 39965 ft 417 kts 292°
2026-04-23 14:26 27.74779 47.92838 39966 ft 417 kts 291°
2026-04-23 14:26 27.77580 47.87069 39971 ft 418 kts 291°
2026-04-23 14:27 27.80358 47.81347 39970 ft 418 kts 291°
2026-04-23 14:27 27.83152 47.75582 39963 ft 418 kts 291°
2026-04-23 14:28 27.85406 47.69594 39974 ft 411 kts 284°
2026-04-23 14:28 27.87337 47.63502 39967 ft 411 kts 283°
2026-04-23 14:29 27.89204 47.57435 39968 ft 411 kts 283°
2026-04-23 14:29 27.91084 47.51325 39985 ft 411 kts 283°
2026-04-23 14:30 27.92973 47.45207 39982 ft 411 kts 283°
2026-04-23 14:30 27.94862 47.39089 39977 ft 411 kts 283°
2026-04-23 14:31 27.96732 47.33022 39981 ft 411 kts 283°
2026-04-23 14:31 27.98619 47.26887 39978 ft 411 kts 283°
2026-04-23 14:32 28.00502 47.20757 39983 ft 411 kts 283°
2026-04-23 14:32 28.02365 47.14676 39989 ft 411 kts 283°
2026-04-23 14:33 28.04244 47.08535 39985 ft 411 kts 283°
2026-04-23 14:33 28.06103 47.02448 39990 ft 411 kts 283°
2026-04-23 14:34 28.07976 46.96304 39988 ft 411 kts 283°
2026-04-23 14:34 28.09830 46.90211 39988 ft 411 kts 283°
2026-04-23 14:35 28.11415 46.85086 39991 ft 412 kts 284°
2026-04-23 14:35 28.13437 46.79053 39987 ft 412 kts 285°
2026-04-23 14:36 28.15502 46.72980 39992 ft 412 kts 285°
2026-04-23 14:36 28.17545 46.66891 39991 ft 412 kts 285°
2026-04-23 14:37 28.19566 46.60813 39992 ft 412 kts 284°
2026-04-23 14:37 28.21570 46.54762 39997 ft 412 kts 284°
2026-04-23 14:38 28.23585 46.48669 39990 ft 412 kts 284°
2026-04-23 14:38 28.25585 46.42615 39982 ft 412 kts 284°
2026-04-23 14:39 28.27594 46.36525 39978 ft 412 kts 284°
2026-04-23 14:39 28.29587 46.30470 39975 ft 412 kts 284°
2026-04-23 14:40 28.31593 46.24369 39968 ft 412 kts 284°
2026-04-23 14:40 28.33594 46.18271 39967 ft 412 kts 284°
2026-04-23 14:41 28.35590 46.12177 39968 ft 412 kts 284°
2026-04-23 14:41 28.37708 46.06133 39970 ft 414 kts 287°
2026-04-23 14:42 28.40000 46.00129 39968 ft 414 kts 287°
2026-04-23 14:42 28.42285 45.94116 39974 ft 414 kts 287°
2026-04-23 14:43 28.44537 45.88085 39978 ft 414 kts 286°
2026-04-23 14:43 28.46762 45.82079 39981 ft 414 kts 286°
2026-04-23 14:44 28.48994 45.76038 39993 ft 414 kts 287°
2026-04-23 14:44 28.51224 45.69999 39989 ft 414 kts 287°
2026-04-23 14:45 28.53436 45.63999 39985 ft 413 kts 287°
2026-04-23 14:45 28.55661 45.57956 39983 ft 413 kts 287°
2026-04-23 14:46 28.57879 45.51920 39983 ft 413 kts 287°
2026-04-23 14:46 28.60080 45.45925 39984 ft 413 kts 287°
2026-04-23 14:47 28.62293 45.39885 39978 ft 412 kts 287°
2026-04-23 14:47 28.64499 45.33852 39983 ft 412 kts 287°
2026-04-23 14:48 28.66690 45.27852 39983 ft 412 kts 287°
2026-04-23 14:48 28.68926 45.21849 39985 ft 414 kts 290°
2026-04-23 14:49 28.71706 45.16036 39986 ft 418 kts 293°
2026-04-23 14:49 28.74668 45.10328 39975 ft 418 kts 294°
2026-04-23 14:50 28.77638 45.04662 39982 ft 418 kts 294°
2026-04-23 14:50 28.80604 44.98959 39986 ft 418 kts 294°
2026-04-23 14:51 28.83559 44.93243 39984 ft 418 kts 293°
2026-04-23 14:51 28.86508 44.87523 39975 ft 418 kts 293°
2026-04-23 14:52 28.89455 44.81799 39977 ft 418 kts 293°
2026-04-23 14:52 28.92383 44.76106 39978 ft 418 kts 293°
2026-04-23 14:53 28.95327 44.70374 39976 ft 418 kts 293°
2026-04-23 14:53 28.98270 44.64637 39970 ft 418 kts 293°
2026-04-23 14:54 29.01187 44.58943 39970 ft 417 kts 293°
2026-04-23 14:54 29.04119 44.53211 39971 ft 417 kts 293°
2026-04-23 14:55 29.07052 44.47469 39966 ft 417 kts 293°
2026-04-23 14:55 29.09981 44.41727 39974 ft 417 kts 293°
2026-04-23 14:56 29.12898 44.36000 39968 ft 417 kts 293°
2026-04-23 14:56 29.14409 44.33207 40025 ft 418 kts 308°
2026-04-23 14:56 29.16453 44.30823 40052 ft 419 kts 304°
2026-04-23 14:57 29.18086 44.28125 39951 ft 408 kts 291°
2026-04-23 14:57 29.19327 44.25215 39961 ft 406 kts 288°
2026-04-23 14:57 29.21676 44.19284 39966 ft 412 kts 289°
2026-04-23 14:58 29.24337 44.13431 39967 ft 416 kts 292°
2026-04-23 14:58 29.27195 44.07713 39964 ft 416 kts 293°
2026-04-23 14:59 29.30123 44.01977 39949 ft 416 kts 293°
2026-04-23 14:59 29.33017 43.96278 39965 ft 415 kts 293°
2026-04-23 15:00 29.35911 43.90543 39953 ft 415 kts 292°
2026-04-23 15:00 29.38801 43.84796 39955 ft 415 kts 292°
2026-04-23 15:01 29.41684 43.79052 39959 ft 415 kts 292°
2026-04-23 15:01 29.44556 43.73324 39951 ft 415 kts 292°
2026-04-23 15:02 29.47442 43.67562 39947 ft 415 kts 292°
2026-04-23 15:02 29.50303 43.61843 39944 ft 415 kts 292°
2026-04-23 15:03 29.53181 43.56080 39941 ft 415 kts 292°
2026-04-23 15:03 29.56061 43.50305 39938 ft 415 kts 292°
2026-04-23 15:04 29.58917 43.44569 39941 ft 415 kts 292°
2026-04-23 15:04 29.61787 43.38799 39940 ft 415 kts 292°
2026-04-23 15:05 29.64653 43.33027 39944 ft 416 kts 292°
2026-04-23 15:05 29.67522 43.27241 39941 ft 416 kts 292°
2026-04-23 15:06 29.70367 43.21496 39940 ft 416 kts 292°
2026-04-23 15:06 29.73229 43.15708 39941 ft 416 kts 292°
2026-04-23 15:07 29.76091 43.09911 39942 ft 416 kts 292°
2026-04-23 15:07 29.78945 43.04122 39944 ft 415 kts 292°
2026-04-23 15:08 29.81795 42.98332 39943 ft 415 kts 292°
2026-04-23 15:09 29.86047 42.89681 39939 ft 415 kts 292°
2026-04-23 15:09 29.88890 42.83884 39940 ft 415 kts 292°
2026-04-23 15:10 29.91248 42.79072 39938 ft 414 kts 292°
2026-04-23 15:10 29.94563 42.72293 39940 ft 414 kts 292°
2026-04-23 15:11 29.97378 42.66528 39936 ft 414 kts 292°
2026-04-23 15:11 30.00204 42.60732 39933 ft 414 kts 292°
2026-04-23 15:12 30.03026 42.54937 39938 ft 414 kts 291°
2026-04-23 15:12 30.05831 42.49167 39934 ft 414 kts 291°
2026-04-23 15:13 30.08650 42.43362 39935 ft 414 kts 291°
2026-04-23 15:13 30.11468 42.37549 39932 ft 414 kts 291°
2026-04-23 15:14 30.14278 42.31743 39926 ft 414 kts 291°
2026-04-23 15:14 30.17067 42.25973 39931 ft 414 kts 291°
2026-04-23 15:15 30.19874 42.20157 39921 ft 414 kts 291°
2026-04-23 15:15 30.22687 42.14319 39921 ft 414 kts 291°
2026-04-23 15:16 30.25479 42.08518 39930 ft 414 kts 291°
2026-04-23 15:16 30.28285 42.02677 39926 ft 414 kts 291°
2026-04-23 15:17 30.31061 41.96891 39924 ft 414 kts 291°
2026-04-23 15:17 30.33861 41.91045 39924 ft 414 kts 291°
2026-04-23 15:18 30.36654 41.85208 39921 ft 414 kts 291°
2026-04-23 15:18 30.39453 41.79347 39925 ft 414 kts 291°
2026-04-23 15:19 30.42222 41.73540 39926 ft 415 kts 291°
2026-04-23 15:19 30.45008 41.67690 39924 ft 415 kts 291°
2026-04-23 15:20 30.47329 41.62808 39923 ft 415 kts 291°
2026-04-23 15:20 30.50123 41.56925 39923 ft 415 kts 291°
2026-04-23 15:21 30.53358 41.50100 39924 ft 416 kts 291°
2026-04-23 15:21 30.56154 41.44194 39923 ft 416 kts 291°
2026-04-23 15:22 30.58471 41.39290 39926 ft 417 kts 291°
2026-04-23 15:22 30.61264 41.33373 39922 ft 417 kts 291°
2026-04-23 15:23 30.64037 41.27489 39920 ft 418 kts 291°
2026-04-23 15:23 30.66837 41.21539 39923 ft 418 kts 291°
2026-04-23 15:24 30.69611 41.15633 39920 ft 419 kts 291°
2026-04-23 15:24 30.72406 41.09676 39911 ft 419 kts 291°
2026-04-23 15:25 30.75199 41.03712 39917 ft 419 kts 291°
2026-04-23 15:25 30.77972 40.97782 39917 ft 419 kts 291°
2026-04-23 15:26 30.80762 40.91807 39920 ft 420 kts 291°
2026-04-23 15:26 30.83547 40.85832 39923 ft 420 kts 291°
2026-04-23 15:27 30.86335 40.79842 39930 ft 420 kts 291°
2026-04-23 15:27 30.89106 40.73879 39936 ft 421 kts 291°
2026-04-23 15:28 30.91898 40.67862 39931 ft 421 kts 291°
2026-04-23 15:28 30.94686 40.61842 39927 ft 422 kts 291°
2026-04-23 15:29 30.97457 40.55851 39928 ft 423 kts 291°
2026-04-23 15:29 31.00253 40.49795 39941 ft 423 kts 291°
2026-04-23 15:30 31.03048 40.43735 39937 ft 424 kts 291°
2026-04-23 15:30 31.05838 40.37674 39938 ft 424 kts 291°
2026-04-23 15:31 31.08616 40.31629 39934 ft 425 kts 291°
2026-04-23 15:31 31.11413 40.25533 39937 ft 425 kts 291°
2026-04-23 15:32 31.14213 40.19421 39938 ft 426 kts 291°
2026-04-23 15:32 31.16988 40.13352 39938 ft 426 kts 291°
2026-04-23 15:33 31.19787 40.07224 39936 ft 427 kts 291°
2026-04-23 15:33 31.22578 40.01101 39935 ft 427 kts 291°
2026-04-23 15:34 31.25341 39.94954 39936 ft 425 kts 288°
2026-04-23 15:34 31.27215 39.88537 39847 ft 416 kts 277°
2026-04-23 15:34 31.27800 39.85232 39620 ft 415 kts 275°
2026-04-23 15:35 31.28294 39.81899 39401 ft 414 kts 274°
2026-04-23 15:35 31.28742 39.78564 39163 ft 414 kts 274°
2026-04-23 15:35 31.29176 39.75238 38939 ft 414 kts 274°
2026-04-23 15:35 31.29614 39.71907 38710 ft 414 kts 274°
2026-04-23 15:36 31.30053 39.68617 38463 ft 415 kts 274°
2026-04-23 15:36 31.30506 39.65279 38184 ft 416 kts 274°
2026-04-23 15:36 31.30964 39.61935 37909 ft 417 kts 275°
2026-04-23 15:36 31.31427 39.58575 37639 ft 419 kts 275°
2026-04-23 15:37 31.31892 39.55202 37372 ft 421 kts 275°
2026-04-23 15:37 31.32350 39.51883 37107 ft 422 kts 275°
2026-04-23 15:37 31.32828 39.48412 36845 ft 424 kts 275°
2026-04-23 15:37 31.33292 39.45033 36585 ft 426 kts 275°
2026-04-23 15:38 31.33760 39.41609 36331 ft 428 kts 275°
2026-04-23 15:38 31.34232 39.38156 36091 ft 429 kts 275°
2026-04-23 15:38 31.34703 39.34702 35846 ft 431 kts 275°
2026-04-23 15:38 31.35174 39.31238 35590 ft 432 kts 275°
2026-04-23 15:39 31.35645 39.27763 35349 ft 433 kts 275°
2026-04-23 15:39 31.36117 39.24278 35108 ft 434 kts 275°
2026-04-23 15:39 31.36591 39.20777 34867 ft 436 kts 275°
2026-04-23 15:39 31.37063 39.17275 34621 ft 437 kts 275°
2026-04-23 15:40 31.37536 39.13757 34396 ft 439 kts 275°
2026-04-23 15:40 31.38011 39.10222 34153 ft 440 kts 275°
2026-04-23 15:40 31.38486 39.06676 33927 ft 441 kts 275°
2026-04-23 15:40 31.38960 39.03127 33659 ft 443 kts 276°
2026-04-23 15:41 31.39435 38.99568 33391 ft 444 kts 276°
2026-04-23 15:41 31.39906 38.96037 33126 ft 444 kts 276°
2026-04-23 15:41 31.40387 38.92415 32852 ft 445 kts 276°
2026-04-23 15:41 31.40856 38.88878 32603 ft 446 kts 276°
2026-04-23 15:42 31.41331 38.85282 32345 ft 447 kts 276°
2026-04-23 15:42 31.41806 38.81681 32090 ft 449 kts 276°
2026-04-23 15:42 31.42282 38.78066 31836 ft 450 kts 276°
2026-04-23 15:42 31.42764 38.74400 31580 ft 451 kts 276°
2026-04-23 15:43 31.43240 38.70767 31333 ft 452 kts 276°
2026-04-23 15:43 31.43710 38.67173 31086 ft 453 kts 276°
2026-04-23 15:43 31.44185 38.63528 30838 ft 454 kts 276°
2026-04-23 15:43 31.44661 38.59869 30593 ft 455 kts 276°
2026-04-23 15:44 31.45138 38.56195 30358 ft 456 kts 276°
2026-04-23 15:44 31.45615 38.52516 30114 ft 457 kts 276°
2026-04-23 15:44 31.46093 38.48821 29860 ft 459 kts 276°
2026-04-23 15:44 31.46569 38.45129 29567 ft 458 kts 276°
2026-04-23 15:45 31.47044 38.41442 29288 ft 457 kts 276°
2026-04-23 15:45 31.47517 38.37762 29013 ft 456 kts 276°
2026-04-23 15:45 31.47988 38.34094 28741 ft 454 kts 276°
2026-04-23 15:45 31.48455 38.30440 28469 ft 453 kts 276°
2026-04-23 15:46 31.48919 38.26801 28190 ft 452 kts 276°
2026-04-23 15:46 31.49381 38.23167 27942 ft 450 kts 276°
2026-04-23 15:46 31.49840 38.19545 27688 ft 449 kts 276°
2026-04-23 15:46 31.50298 38.15927 27423 ft 448 kts 276°
2026-04-23 15:47 31.50753 38.12326 27168 ft 446 kts 276°
2026-04-23 15:47 31.51205 38.08730 26907 ft 445 kts 276°
2026-04-23 15:47 31.51655 38.05150 26659 ft 444 kts 276°
2026-04-23 15:47 31.52104 38.01575 26408 ft 442 kts 277°
2026-04-23 15:48 31.52550 37.98012 26161 ft 441 kts 277°
2026-04-23 15:48 31.52988 37.94504 25920 ft 440 kts 277°
2026-04-23 15:48 31.53430 37.90958 25670 ft 439 kts 277°
2026-04-23 15:48 31.53868 37.87428 25431 ft 438 kts 277°
2026-04-23 15:49 31.54313 37.83902 25257 ft 437 kts 278°
2026-04-23 15:49 31.54870 37.80408 25028 ft 436 kts 279°
2026-04-23 15:49 31.55474 37.76929 24818 ft 435 kts 280°
2026-04-23 15:49 31.56086 37.73457 24573 ft 434 kts 280°
2026-04-23 15:50 31.56698 37.69988 24333 ft 433 kts 280°
2026-04-23 15:50 31.57307 37.66536 24108 ft 432 kts 280°
2026-04-23 15:50 31.57915 37.63089 23876 ft 431 kts 280°
2026-04-23 15:50 31.58521 37.59651 23644 ft 430 kts 280°
2026-04-23 15:51 31.59124 37.56223 23409 ft 429 kts 280°
2026-04-23 15:51 31.59726 37.52795 23134 ft 428 kts 280°
2026-04-23 15:51 31.60326 37.49378 22860 ft 427 kts 280°
2026-04-23 15:51 31.60923 37.45970 22584 ft 426 kts 280°
2026-04-23 15:52 31.61518 37.42568 22326 ft 425 kts 280°
2026-04-23 15:52 31.62111 37.39174 22059 ft 425 kts 280°
2026-04-23 15:52 31.62703 37.35780 21805 ft 424 kts 280°
2026-04-23 15:52 31.63291 37.32400 21544 ft 423 kts 280°
2026-04-23 15:53 31.63878 37.29023 21289 ft 422 kts 280°
2026-04-23 15:53 31.64463 37.25650 21037 ft 421 kts 280°
2026-04-23 15:53 31.65044 37.22291 20786 ft 419 kts 280°
2026-04-23 15:53 31.65623 37.18942 20538 ft 418 kts 280°
2026-04-23 15:54 31.66200 37.15604 20291 ft 417 kts 280°
2026-04-23 15:54 31.66774 37.12271 20044 ft 416 kts 280°
2026-04-23 15:54 31.67345 37.08948 19815 ft 415 kts 280°
2026-04-23 15:54 31.67915 37.05633 19584 ft 414 kts 280°
2026-04-23 15:55 31.68481 37.02331 19343 ft 412 kts 280°
2026-04-23 15:55 31.69038 36.99077 19102 ft 411 kts 279°
2026-04-23 15:55 31.70071 36.93030 18687 ft 409 kts 279°
2026-04-23 15:55 31.71197 36.86417 18223 ft 407 kts 279°
2026-04-23 15:56 31.72286 36.80005 17718 ft 404 kts 279°
2026-04-23 15:56 31.73376 36.73560 17199 ft 401 kts 279°
2026-04-23 15:56 31.74454 36.67163 16680 ft 399 kts 279°
2026-04-23 15:56 31.75528 36.60770 16180 ft 397 kts 279°
2026-04-23 15:57 31.76593 36.54418 15676 ft 395 kts 279°
2026-04-23 15:57 31.77636 36.48112 15230 ft 392 kts 278°
2026-04-23 15:57 31.78553 36.41806 14761 ft 390 kts 277°
2026-04-23 15:57 31.79461 36.35534 14292 ft 388 kts 277°
2026-04-23 15:58 31.80371 36.29292 13829 ft 386 kts 277°
2026-04-23 15:58 31.81277 36.23076 13302 ft 384 kts 277°
2026-04-23 15:58 31.82173 36.16909 12806 ft 382 kts 277°
2026-04-23 15:58 31.83060 36.10781 12294 ft 379 kts 277°
2026-04-23 15:59 31.83940 36.04679 11797 ft 377 kts 277°
2026-04-23 15:59 31.84810 35.98630 11303 ft 375 kts 277°
2026-04-23 15:59 31.85366 35.94758 11024 ft 374 kts 277°
2026-04-23 15:59 31.85798 35.91744 10780 ft 373 kts 277°
2026-04-23 16:00 31.86226 35.88754 10615 ft 364 kts 277°
2026-04-23 16:00 31.86637 35.85885 10508 ft 348 kts 277°
2026-04-23 16:00 31.87031 35.83135 10340 ft 335 kts 276°
2026-04-23 16:00 31.87410 35.80461 9939 ft 331 kts 276°
2026-04-23 16:01 31.87789 35.77790 9431 ft 328 kts 276°
2026-04-23 16:01 31.88160 35.75150 8928 ft 326 kts 277°
2026-04-23 16:01 31.88531 35.72522 8415 ft 325 kts 276°
2026-04-23 16:01 31.88903 35.69893 7742 ft 328 kts 277°
2026-04-23 16:02 31.89273 35.67266 7010 ft 319 kts 277°
2026-04-23 16:02 31.89629 35.64748 6407 ft 304 kts 277°
2026-04-23 16:02 31.89965 35.62368 6357 ft 288 kts 277°
2026-04-23 16:02 31.90291 35.60043 6713 ft 283 kts 277°
2026-04-23 16:03 31.90600 35.57864 6943 ft 258 kts 276°
2026-04-23 16:03 31.90880 35.55882 6979 ft 241 kts 276°
2026-04-23 16:03 31.91179 35.53746 6977 ft 223 kts 276°
2026-04-23 16:03 31.91646 35.50414 6995 ft 189 kts 275°
2026-04-23 16:04 31.92058 35.47411 6985 ft 201 kts 275°
2026-04-23 16:04 31.92537 35.43890 6965 ft 226 kts 276°
2026-04-23 16:04 31.93047 35.40248 6968 ft 225 kts 276°
2026-04-23 16:04 31.93548 35.36642 6954 ft 224 kts 277°
2026-04-23 16:05 31.93864 35.34364 7193 ft 226 kts 276°
2026-04-23 16:05 31.94198 35.31946 7929 ft 225 kts 276°
2026-04-23 16:05 31.94451 35.30123 8467 ft 226 kts 276°
2026-04-23 16:05 31.94704 35.28299 8622 ft 227 kts 275°
2026-04-23 16:06 31.94944 35.26444 8868 ft 230 kts 274°
2026-04-23 16:06 31.95129 35.24568 8438 ft 231 kts 272°
2026-04-23 16:06 31.95226 35.23282 7867 ft 236 kts 272°
2026-04-23 16:07 31.95358 35.21199 6927 ft 235 kts 271°
2026-04-23 16:07 31.95476 35.19325 6278 ft 223 kts 274°
2026-04-23 16:07 31.95808 35.17626 5968 ft 202 kts 283°
2026-04-23 16:07 31.96067 35.16080 5597 ft 187 kts 273°
2026-04-23 16:08 31.96167 35.14599 5184 ft 177 kts 270°
2026-04-23 16:08 31.96221 35.13185 4789 ft 169 kts 269°
2026-04-23 16:08 31.96258 35.11845 4534 ft 162 kts 269°
2026-04-23 16:08 31.96263 35.10519 4360 ft 162 kts 268°
2026-04-23 16:09 31.96260 35.09204 4118 ft 157 kts 268°
2026-04-23 16:09 31.96243 35.07944 3821 ft 153 kts 267°
2026-04-23 16:09 31.96222 35.07115 3580 ft 153 kts 267°
2026-04-23 16:09 31.96196 35.05896 3323 ft 147 kts 267°
2026-04-23 16:10 31.96145 35.04701 3073 ft 142 kts 267°
2026-04-23 16:10 31.96096 35.03580 2864 ft 135 kts 268°
2026-04-23 16:10 31.96034 35.02475 2520 ft 136 kts 269°
2026-04-23 16:10 31.96028 35.01373 2254 ft 133 kts 276°
2026-04-23 16:11 31.96122 35.00292 1958 ft 132 kts 281°
2026-04-23 16:11 31.96238 34.99261 1787 ft 122 kts 281°
2026-04-23 16:11 31.96401 34.98309 1578 ft 125 kts 287°
2026-04-23 16:11 31.96613 34.97285 1729 ft 122 kts 287°
2026-04-23 16:12 31.96807 34.96335 1462 ft 116 kts 291°
2026-04-23 16:12 31.97090 34.95337 1400 ft 145 kts 296°
2026-04-23 16:12 31.97576 34.94141 1337 ft 176 kts 301°
2026-04-23 16:12 31.98193 34.92846 1022 ft 182 kts 303°
2026-04-23 16:13 31.98863 34.91624 688 ft 172 kts 306°
2026-04-23 16:13 32.00004 34.89415 214 ft 146 kts 305°
2026-04-23 16:13 32.00513 34.88441 124 ft 128 kts 302°